QPF
0.01 0.02 0.02 0.01 0.01 0.01 0.01 0.01 0.02 0.03 0.02 0.02 0.02 0.04 0.06 0.04 0.02 0.03 0.02 0.02 0.03 0.04 0.05 0.03 0.04 0.05 0.04 0.06 0.06 0.08 0.09 0.10 0.11 0.12 0.12 0.12 0.11 0.10 0.10 0.09 0.10 0.09 0.07
0.01 0.01 0.02 0.01 0.00 0.01 0.01 0.01 0.02 0.02 0.02 0.02 0.02 0.03 0.03 0.03 0.03 0.04 0.05 0.04 0.05 0.05 0.05 0.06 0.08 0.09 0.07 0.06 0.08 0.09 0.12 0.11 0.11 0.11 0.13 0.15 0.14 0.08 0.08 0.08 0.06 0.07 0.06
0.01 0.01 0.02 0.01 0.00 0.00 0.01 0.01 0.01 0.02 0.02 0.03 0.03 0.04 0.04 0.04 0.05 0.07 0.07 0.07 0.05 0.05 0.05 0.05 0.06 0.07 0.06 0.05 0.06 0.08 0.14 0.13 0.12 0.12 0.14 0.17 0.13 0.09 0.09 0.08 0.07 0.07 0.07
0.00 0.01 0.01 0.01 0.01 0.00 0.00 0.01 0.01 0.02 0.03 0.04 0.04 0.05 0.06 0.06 0.07 0.08 0.08 0.08 0.05 0.03 0.04 0.04 0.05 0.05 0.06 0.06 0.04 0.07 0.11 0.15 0.17 0.17 0.14 0.11 0.09 0.09 0.10 0.08 0.07 0.09 0.08
0.00 0.01 0.02 0.02 0.02 0.01 0.00 0.01 0.01 0.02 0.03 0.04 0.04 0.05 0.06 0.07 0.08 0.10 0.11 0.08 0.06 0.05 0.04 0.04 0.05 0.05 0.05 0.06 0.05 0.06 0.08 0.11 0.15 0.16 0.13 0.11 0.10 0.09 0.09 0.08 0.08 0.10 0.09
0.00 0.00 0.01 0.02 0.03 0.03 0.01 0.01 0.01 0.02 0.03 0.03 0.03 0.04 0.05 0.06 0.08 0.11 0.12 0.07 0.06 0.06 0.05 0.05 0.06 0.06 0.06 0.06 0.06 0.06 0.07 0.09 0.12 0.12 0.11 0.10 0.10 0.09 0.09 0.07 0.09 0.12 0.09
0.00 0.00 0.00 0.00 0.01 0.01 0.01 0.01 0.01 0.02 0.03 0.03 0.03 0.03 0.04 0.05 0.08 0.09 0.10 0.07 0.05 0.06 0.06 0.07 0.08 0.08 0.07 0.07 0.07 0.06 0.06 0.08 0.09 0.09 0.10 0.09 0.08 0.07 0.08 0.08 0.09 0.12 0.10
0.00 0.00 0.02 0.01 0.01 0.01 0.00 0.00 0.00 0.01 0.01 0.02 0.03 0.03 0.04 0.05 0.06 0.07 0.07 0.08 0.06 0.05 0.05 0.08 0.09 0.10 0.11 0.10 0.09 0.06 0.07 0.09 0.09 0.08 0.09 0.09 0.07 0.05 0.06 0.08 0.09 0.11 0.12
0.00 0.01 0.04 0.06 0.06 0.03 0.00 0.00 0.00 0.01 0.01 0.01 0.02 0.03 0.04 0.05 0.05 0.06 0.07 0.08 0.08 0.08 0.08 0.10 0.12 0.11 0.09 0.07 0.08 0.08 0.08 0.09 0.09 0.08 0.08 0.08 0.06 0.05 0.05 0.06 0.08 0.10 0.10
0.01 0.01 0.01 0.04 0.05 0.02 0.01 0.00 0.00 0.01 0.01 0.01 0.01 0.02 0.03 0.04 0.06 0.06 0.06 0.05 0.05 0.05 0.05 0.05 0.05 0.05 0.07 0.08 0.10 0.08 0.09 0.09 0.07 0.07 0.07 0.07 0.06 0.06 0.05 0.05 0.07 0.08 0.08
0.03 0.02 0.01 0.02 0.02 0.01 0.01 0.01 0.01 0.01 0.01 0.02 0.02 0.03 0.03 0.03 0.04 0.05 0.04 0.05 0.05 0.05 0.05 0.04 0.04 0.04 0.06 0.08 0.08 0.05 0.06 0.06 0.06 0.06 0.06 0.06 0.05 0.05 0.04 0.04 0.05 0.07 0.09
0.09 0.06 0.02 0.02 0.03 0.01 0.01 0.01 0.01 0.01 0.01 0.02 0.02 0.02 0.03 0.04 0.04 0.05 0.06 0.07 0.06 0.05 0.04 0.04 0.04 0.03 0.04 0.06 0.06 0.05 0.05 0.04 0.04 0.05 0.05 0.04 0.05 0.05 0.04 0.05 0.06 0.06 0.06
0.03 0.02 0.01 0.01 0.01 0.02 0.01 0.01 0.01 0.01 0.01 0.02 0.02 0.02 0.02 0.03 0.04 0.06 0.07 0.07 0.06 0.05 0.05 0.06 0.05 0.05 0.05 0.06 0.06 0.06 0.05 0.03 0.03 0.04 0.05 0.05 0.05 0.04 0.05 0.04 0.04 0.04 0.04
0.00 0.00 0.01 0.01 0.01 0.01 0.01 0.01 0.01 0.01 0.01 0.02 0.03 0.03 0.03 0.04 0.05 0.07 0.08 0.09 0.09 0.07 0.06 0.06 0.07 0.07 0.07 0.07 0.07 0.07 0.07 0.06 0.06 0.06 0.07 0.06 0.04 0.03 0.03 0.04 0.05 0.05 0.03
0.00 0.01 0.02 0.02 0.02 0.02 0.01 0.01 0.01 0.01 0.02 0.03 0.05 0.05 0.05 0.05 0.05 0.06 0.08 0.08 0.07 0.05 0.06 0.07 0.07 0.07 0.07 0.06 0.08 0.08 0.08 0.09 0.07 0.07 0.05 0.05 0.04 0.04 0.04 0.03 0.05 0.05 0.05
0.01 0.02 0.02 0.03 0.03 0.02 0.02 0.02 0.02 0.02 0.02 0.03 0.04 0.06 0.05 0.05 0.05 0.06 0.06 0.07 0.06 0.06 0.07 0.06 0.06 0.06 0.05 0.07 0.09 0.10 0.12 0.11 0.10 0.10 0.08 0.06 0.05 0.04 0.04 0.04 0.05 0.05 0.05
0.01 0.02 0.02 0.02 0.02 0.02 0.02 0.02 0.02 0.01 0.02 0.03 0.05 0.07 0.06 0.07 0.07 0.08 0.09 0.09 0.07 0.07 0.06 0.05 0.06 0.05 0.06 0.07 0.09 0.09 0.10 0.10 0.10 0.10 0.09 0.06 0.04 0.04 0.04 0.05 0.05 0.05 0.04
0.01 0.01 0.02 0.03 0.02 0.01 0.02 0.02 0.02 0.02 0.02 0.02 0.03 0.04 0.05 0.06 0.06 0.07 0.07 0.06 0.05 0.05 0.04 0.05 0.05 0.05 0.05 0.06 0.08 0.08 0.07 0.06 0.05 0.05 0.05 0.04 0.03 0.04 0.05 0.05 0.05 0.03 0.03
0.01 0.01 0.01 0.01 0.02 0.02 0.03 0.03 0.03 0.03 0.02 0.02 0.02 0.02 0.04 0.05 0.05 0.05 0.04 0.04 0.04 0.04 0.04 0.04 0.04 0.04 0.04 0.04 0.05 0.08 0.07 0.05 0.03 0.03 0.03 0.03 0.02 0.03 0.03 0.04 0.03 0.03 0.03
0.01 0.01 0.01 0.01 0.02 0.02 0.03 0.03 0.03 0.02 0.02 0.03 0.03 0.03 0.02 0.04 0.05 0.05 0.05 0.05 0.05 0.05 0.04 0.04 0.04 0.04 0.03 0.04 0.03 0.04 0.03 0.03 0.03 0.02 0.02 0.02 0.02 0.02 0.02 0.02 0.03 0.03 0.03
0.01 0.01 0.01 0.01 0.02 0.02 0.03 0.03 0.03 0.03 0.03 0.04 0.04 0.04 0.03 0.04 0.05 0.05 0.06 0.06 0.06 0.05 0.04 0.04 0.04 0.04 0.03 0.03 0.02 0.02 0.02 0.02 0.02 0.01 0.02 0.02 0.02 0.02 0.02 0.02 0.02 0.02 0.03
0.01 0.01 0.01 0.01 0.02 0.01 0.02 0.04 0.04 0.03 0.03 0.04 0.04 0.04 0.05 0.03 0.04 0.05 0.06 0.06 0.06 0.05 0.04 0.04 0.04 0.04 0.02 0.02 0.01 0.01 0.01 0.02 0.02 0.02 0.02 0.02 0.02 0.02 0.03 0.03 0.02 0.02 0.02
0.02 0.02 0.02 0.02 0.03 0.02 0.02 0.03 0.03 0.03 0.03 0.04 0.04 0.04 0.04 0.04 0.05 0.06 0.07 0.07 0.06 0.05 0.04 0.03 0.03 0.02 0.02 0.02 0.01 0.01 0.01 0.02 0.02 0.02 0.03 0.03 0.03 0.04 0.03 0.03 0.03 0.02 0.01
0.01 0.02 0.03 0.04 0.03 0.02 0.02 0.03 0.03 0.03 0.04 0.04 0.04 0.05 0.04 0.04 0.05 0.05 0.05 0.05 0.05 0.05 0.05 0.04 0.04 0.03 0.03 0.03 0.02 0.02 0.03 0.03 0.04 0.03 0.03 0.03 0.03 0.03 0.02 0.02 0.03 0.03 0.03
0.01 0.01 0.02 0.02 0.01 0.01 0.02 0.02 0.03 0.04 0.04 0.05 0.06 0.05 0.04 0.03 0.04 0.04 0.04 0.04 0.04 0.04 0.05 0.05 0.05 0.05 0.04 0.03 0.04 0.03 0.03 0.04 0.04 0.04 0.03 0.03 0.03 0.03 0.03 0.03 0.03 0.04 0.04
0.01 0.01 0.02 0.02 0.02 0.02 0.01 0.01 0.02 0.03 0.04 0.04 0.04 0.04 0.03 0.03 0.04 0.04 0.03 0.03 0.04 0.05 0.05 0.05 0.04 0.05 0.05 0.06 0.07 0.06 0.05 0.05 0.05 0.05 0.04 0.04 0.03 0.03 0.03 0.03 0.03 0.03 0.03
MSLP
1008.29 1008.78 1009.21 1009.60 1009.94 1010.27 1010.62 1011.03 1011.51 1012.08 1012.69 1013.32 1013.92 1014.44 1014.85 1015.11 1015.24 1015.26 1015.20 1015.10 1014.99 1014.91 1014.87 1014.87 1014.91 1014.97 1015.03 1015.08 1015.10 1015.11 1015.09 1015.05 1014.96 1014.84 1014.65 1014.40 1014.07 1013.67 1013.23 1012.76 1012.31 1011.94 1011.68
1008.05 1008.64 1009.17 1009.63 1010.01 1010.34 1010.66 1011.02 1011.44 1011.95 1012.51 1013.11 1013.69 1014.20 1014.60 1014.87 1015.01 1015.03 1014.98 1014.89 1014.81 1014.76 1014.75 1014.79 1014.86 1014.94 1015.01 1015.07 1015.11 1015.13 1015.14 1015.13 1015.11 1015.06 1014.97 1014.82 1014.59 1014.26 1013.84 1013.37 1012.87 1012.41 1012.03
1007.67 1008.37 1009.01 1009.56 1010.00 1010.35 1010.67 1010.99 1011.36 1011.80 1012.31 1012.86 1013.41 1013.90 1014.30 1014.57 1014.72 1014.76 1014.73 1014.66 1014.61 1014.59 1014.62 1014.69 1014.78 1014.88 1014.96 1015.02 1015.05 1015.07 1015.08 1015.10 1015.13 1015.17 1015.18 1015.14 1015.01 1014.79 1014.44 1014.00 1013.50 1012.98 1012.50
1007.14 1007.94 1008.70 1009.35 1009.87 1010.28 1010.61 1010.92 1011.25 1011.65 1012.11 1012.61 1013.12 1013.59 1013.98 1014.25 1014.41 1014.46 1014.45 1014.42 1014.39 1014.40 1014.45 1014.54 1014.65 1014.75 1014.83 1014.87 1014.89 1014.89 1014.90 1014.93 1015.00 1015.09 1015.19 1015.26 1015.25 1015.14 1014.90 1014.53 1014.06 1013.52 1012.98
1006.47 1007.37 1008.23 1008.98 1009.60 1010.07 1010.45 1010.77 1011.10 1011.47 1011.89 1012.36 1012.84 1013.29 1013.66 1013.93 1014.09 1014.15 1014.15 1014.13 1014.12 1014.15 1014.21 1014.32 1014.43 1014.53 1014.60 1014.62 1014.61 1014.59 1014.57 1014.60 1014.68 1014.82 1014.98 1015.14 1015.24 1015.25 1015.12 1014.85 1014.44 1013.94 1013.38
1005.76 1006.70 1007.63 1008.48 1009.18 1009.74 1010.18 1010.54 1010.89 1011.26 1011.67 1012.12 1012.58 1013.01 1013.36 1013.62 1013.76 1013.82 1013.82 1013.79 1013.78 1013.81 1013.87 1013.98 1014.09 1014.18 1014.24 1014.25 1014.22 1014.17 1014.13 1014.13 1014.21 1014.35 1014.54 1014.76 1014.96 1015.07 1015.06 1014.90 1014.60 1014.16 1013.64
1005.07 1006.02 1006.99 1007.89 1008.66 1009.29 1009.79 1010.21 1010.60 1011.00 1011.43 1011.88 1012.32 1012.74 1013.07 1013.31 1013.43 1013.47 1013.44 1013.40 1013.36 1013.37 1013.43 1013.52 1013.63 1013.72 1013.77 1013.78 1013.73 1013.66 1013.60 1013.57 1013.62 1013.75 1013.95 1014.19 1014.44 1014.64 1014.73 1014.70 1014.51 1014.18 1013.74
1004.52 1005.41 1006.36 1007.27 1008.07 1008.75 1009.31 1009.80 1010.24 1010.68 1011.14 1011.60 1012.06 1012.46 1012.78 1012.99 1013.09 1013.09 1013.03 1012.95 1012.88 1012.86 1012.89 1012.97 1013.08 1013.17 1013.24 1013.25 1013.21 1013.13 1013.05 1013.00 1013.01 1013.10 1013.27 1013.51 1013.78 1014.03 1014.21 1014.28 1014.22 1014.02 1013.70
1004.18 1004.95 1005.81 1006.67 1007.46 1008.15 1008.75 1009.29 1009.79 1010.29 1010.78 1011.28 1011.74 1012.15 1012.45 1012.64 1012.71 1012.68 1012.58 1012.46 1012.36 1012.31 1012.31 1012.39 1012.49 1012.60 1012.69 1012.73 1012.71 1012.64 1012.56 1012.48 1012.45 1012.49 1012.62 1012.83 1013.08 1013.35 1013.59 1013.75 1013.80 1013.74 1013.55
1004.06 1004.66 1005.38 1006.13 1006.85 1007.52 1008.13 1008.70 1009.25 1009.79 1010.34 1010.86 1011.35 1011.77 1012.07 1012.25 1012.30 1012.25 1012.12 1011.97 1011.84 1011.76 1011.76 1011.82 1011.94 1012.07 1012.19 1012.27 1012.29 1012.25 1012.18 1012.09 1012.03 1012.02 1012.09 1012.24 1012.45 1012.71 1012.97 1013.19 1013.34 1013.40 1013.35
1004.15 1004.55 1005.07 1005.66 1006.26 1006.86 1007.44 1008.02 1008.59 1009.18 1009.77 1010.33 1010.85 1011.28 1011.60 1011.79 1011.84 1011.78 1011.65 1011.49 1011.35 1011.27 1011.26 1011.33 1011.47 1011.63 1011.79 1011.92 1011.99 1011.99 1011.94 1011.86 1011.77 1011.72 1011.73 1011.81 1011.96 1012.18 1012.42 1012.68 1012.90 1013.05 1013.12
1004.40 1004.56 1004.86 1005.25 1005.70 1006.18 1006.71 1007.26 1007.84 1008.45 1009.07 1009.66 1010.21 1010.67 1011.02 1011.23 1011.30 1011.27 1011.17 1011.03 1010.91 1010.84 1010.84 1010.93 1011.09 1011.28 1011.48 1011.65 1011.77 1011.82 1011.81 1011.74 1011.65 1011.57 1011.52 1011.54 1011.62 1011.78 1011.99 1012.24 1012.49 1012.72 1012.89
1004.71 1004.64 1004.70 1004.87 1005.15 1005.50 1005.93 1006.43 1007.00 1007.61 1008.24 1008.85 1009.42 1009.91 1010.29 1010.55 1010.67 1010.70 1010.64 1010.56 1010.48 1010.45 1010.48 1010.59 1010.76 1010.98 1011.21 1011.42 1011.58 1011.67 1011.70 1011.66 1011.59 1011.49 1011.41 1011.38 1011.40 1011.49 1011.65 1011.87 1012.13 1012.39 1012.62
1005.01 1004.72 1004.55 1004.52 1004.61 1004.83 1005.15 1005.59 1006.10 1006.69 1007.30 1007.92 1008.50 1009.01 1009.42 1009.73 1009.92 1010.02 1010.05 1010.04 1010.03 1010.05 1010.12 1010.24 1010.43 1010.66 1010.90 1011.12 1011.31 1011.45 1011.52 1011.53 1011.48 1011.40 1011.31 1011.25 1011.22 1011.26 1011.37 1011.54 1011.78 1012.04 1012.31
1005.25 1004.77 1004.41 1004.19 1004.12 1004.20 1004.41 1004.76 1005.21 1005.74 1006.32 1006.90 1007.47 1007.98 1008.42 1008.78 1009.04 1009.22 1009.34 1009.42 1009.49 1009.57 1009.68 1009.82 1010.01 1010.22 1010.46 1010.68 1010.89 1011.06 1011.17 1011.23 1011.23 1011.20 1011.14 1011.08 1011.04 1011.04 1011.10 1011.23 1011.42 1011.67 1011.94
1005.41 1004.79 1004.28 1003.91 1003.70 1003.66 1003.76 1004.01 1004.38 1004.84 1005.34 1005.87 1006.40 1006.89 1007.34 1007.72 1008.05 1008.31 1008.52 1008.69 1008.84 1008.98 1009.12 1009.27 1009.44 1009.63 1009.83 1010.04 1010.25 1010.43 1010.59 1010.71 1010.79 1010.83 1010.83 1010.82 1010.80 1010.79 1010.83 1010.92 1011.07 1011.28 1011.53
1005.51 1004.80 1004.19 1003.72 1003.40 1003.26 1003.27 1003.42 1003.70 1004.06 1004.47 1004.91 1005.37 1005.81 1006.23 1006.63 1006.99 1007.32 1007.60 1007.85 1008.07 1008.25 1008.42 1008.56 1008.71 1008.86 1009.02 1009.19 1009.39 1009.59 1009.79 1009.98 1010.15 1010.29 1010.39 1010.46 1010.50 1010.53 1010.56 1010.63 1010.74 1010.90 1011.12
1005.60 1004.84 1004.17 1003.64 1003.26 1003.04 1002.98 1003.04 1003.21 1003.46 1003.76 1004.10 1004.46 1004.82 1005.20 1005.58 1005.95 1006.31 1006.65 1006.96 1007.22 1007.44 1007.61 1007.74 1007.85 1007.95 1008.06 1008.19 1008.37 1008.58 1008.83 1009.10 1009.37 1009.63 1009.86 1010.03 1010.17 1010.26 1010.32 1010.39 1010.47 1010.59 1010.76
1005.69 1004.93 1004.25 1003.70 1003.29 1003.03 1002.90 1002.88 1002.96 1003.10 1003.28 1003.49 1003.74 1004.01 1004.31 1004.65 1005.01 1005.38 1005.74 1006.08 1006.38 1006.61 1006.78 1006.89 1006.95 1007.00 1007.06 1007.15 1007.30 1007.53 1007.82 1008.17 1008.55 1008.93 1009.29 1009.60 1009.84 1010.02 1010.14 1010.22 1010.29 1010.37 1010.49
1005.80 1005.07 1004.42 1003.87 1003.46 1003.18 1003.01 1002.93 1002.91 1002.95 1003.02 1003.11 1003.24 1003.42 1003.64 1003.91 1004.24 1004.59 1004.96 1005.31 1005.61 1005.85 1006.01 1006.10 1006.13 1006.13 1006.14 1006.20 1006.33 1006.56 1006.89 1007.30 1007.78 1008.28 1008.76 1009.20 1009.56 1009.83 1010.01 1010.13 1010.20 1010.26 1010.34
1005.93 1005.24 1004.63 1004.12 1003.72 1003.43 1003.23 1003.11 1003.03 1002.98 1002.95 1002.94 1002.97 1003.05 1003.19 1003.40 1003.67 1004.00 1004.35 1004.69 1005.00 1005.23 1005.38 1005.45 1005.45 1005.42 1005.40 1005.43 1005.55 1005.77 1006.12 1006.59 1007.13 1007.72 1008.30 1008.84 1009.30 1009.67 1009.92 1010.08 1010.17 1010.22 1010.26
1006.02 1005.39 1004.83 1004.36 1003.99 1003.71 1003.50 1003.35 1003.22 1003.11 1003.00 1002.92 1002.86 1002.86 1002.93 1003.08 1003.30 1003.59 1003.92 1004.25 1004.54 1004.77 1004.92 1004.98 1004.97 1004.93 1004.89 1004.90 1005.00 1005.22 1005.57 1006.05 1006.63 1007.26 1007.91 1008.52 1009.05 1009.48 1009.79 1010.00 1010.11 1010.17 1010.21
1006.04 1005.47 1004.96 1004.53 1004.19 1003.93 1003.72 1003.55 1003.40 1003.24 1003.09 1002.95 1002.84 1002.78 1002.79 1002.88 1003.07 1003.32 1003.62 1003.93 1004.21 1004.44 1004.59 1004.66 1004.66 1004.62 1004.58 1004.58 1004.67 1004.87 1005.21 1005.67 1006.24 1006.88 1007.54 1008.17 1008.74 1009.21 1009.57 1009.82 1009.97 1010.06 1010.11
1005.98 1005.45 1004.98 1004.60 1004.28 1004.03 1003.83 1003.65 1003.48 1003.31 1003.13 1002.95 1002.80 1002.70 1002.67 1002.73 1002.87 1003.09 1003.36 1003.66 1003.93 1004.17 1004.33 1004.42 1004.45 1004.43 1004.40 1004.41 1004.49 1004.67 1004.98 1005.40 1005.92 1006.52 1007.14 1007.75 1008.32 1008.80 1009.18 1009.47 1009.67 1009.80 1009.89
1005.82 1005.33 1004.90 1004.54 1004.24 1004.00 1003.79 1003.61 1003.42 1003.23 1003.03 1002.84 1002.67 1002.54 1002.49 1002.51 1002.62 1002.81 1003.06 1003.33 1003.61 1003.85 1004.04 1004.17 1004.24 1004.26 1004.27 1004.29 1004.37 1004.53 1004.79 1005.15 1005.60 1006.11 1006.66 1007.22 1007.74 1008.21 1008.61 1008.92 1009.17 1009.37 1009.52
1005.60 1005.14 1004.73 1004.38 1004.08 1003.83 1003.61 1003.40 1003.20 1002.99 1002.78 1002.57 1002.38 1002.24 1002.15 1002.15 1002.23 1002.39 1002.61 1002.87 1003.15 1003.41 1003.64 1003.82 1003.94 1004.02 1004.07 1004.13 1004.22 1004.36 1004.57 1004.86 1005.22 1005.64 1006.10 1006.57 1007.03 1007.47 1007.86 1008.21 1008.51 1008.77 1009.01
Thickness
5852 5851 5848 5845 5839 5833 5827 5822 5818 5815 5812 5808 5804 5801 5798 5799 5797 5796 5793 5790 5787 5786 5783 5781 5780 5779 5775 5773 5772 5770 5767 5767 5767 5763 5761 5765 5769 5769 5769 5769 5769 5769 5768
5850 5848 5847 5844 5839 5832 5827 5823 5818 5815 5813 5809 5807 5804 5802 5800 5798 5796 5794 5791 5788 5785 5784 5780 5778 5777 5775 5773 5772 5769 5765 5765 5766 5761 5754 5751 5755 5762 5768 5766 5765 5766 5766
5850 5847 5845 5842 5839 5833 5828 5825 5820 5816 5813 5811 5808 5805 5801 5798 5795 5792 5790 5789 5788 5786 5784 5782 5778 5776 5775 5772 5771 5768 5764 5761 5763 5764 5755 5747 5743 5750 5758 5761 5762 5763 5762
5856 5851 5846 5842 5839 5835 5832 5826 5820 5816 5813 5810 5805 5800 5795 5791 5791 5790 5789 5788 5787 5786 5784 5782 5779 5776 5774 5772 5770 5768 5764 5761 5758 5760 5761 5757 5753 5746 5745 5753 5758 5759 5758
5860 5853 5849 5845 5842 5838 5832 5826 5820 5815 5812 5808 5805 5799 5796 5794 5793 5791 5788 5786 5786 5785 5783 5781 5778 5775 5773 5771 5768 5766 5763 5761 5757 5756 5756 5755 5754 5752 5744 5741 5747 5752 5754
5863 5857 5852 5846 5841 5837 5832 5826 5818 5813 5811 5807 5804 5799 5795 5792 5789 5786 5784 5783 5783 5782 5781 5779 5776 5773 5771 5769 5767 5765 5762 5759 5757 5755 5754 5752 5749 5747 5745 5741 5741 5743 5748
5863 5856 5849 5842 5836 5833 5829 5824 5817 5811 5809 5805 5801 5798 5795 5792 5788 5785 5782 5780 5779 5778 5777 5776 5773 5771 5768 5766 5765 5762 5760 5758 5755 5753 5753 5752 5751 5750 5746 5741 5739 5739 5742
5862 5855 5847 5840 5834 5831 5827 5822 5814 5809 5806 5802 5799 5796 5793 5790 5787 5784 5782 5779 5778 5776 5775 5772 5770 5768 5766 5764 5761 5759 5757 5756 5753 5752 5751 5750 5749 5749 5746 5741 5735 5731 5733
5857 5853 5846 5840 5835 5830 5826 5822 5814 5808 5804 5800 5796 5793 5790 5787 5785 5782 5780 5777 5775 5775 5772 5769 5766 5763 5761 5759 5757 5755 5755 5753 5750 5749 5748 5746 5746 5745 5744 5741 5737 5729 5723
5849 5847 5845 5840 5835 5831 5826 5821 5813 5806 5802 5798 5794 5791 5787 5784 5782 5779 5776 5774 5771 5769 5767 5764 5762 5759 5757 5755 5753 5752 5752 5749 5747 5746 5743 5741 5741 5739 5738 5737 5735 5731 5724
5845 5840 5840 5838 5832 5828 5823 5816 5809 5803 5798 5795 5790 5787 5783 5781 5779 5776 5773 5770 5768 5764 5761 5759 5757 5755 5753 5752 5750 5748 5746 5744 5743 5741 5739 5737 5736 5733 5732 5731 5729 5727 5723
5841 5838 5835 5830 5826 5821 5816 5810 5804 5799 5795 5791 5786 5782 5780 5777 5774 5771 5768 5766 5762 5760 5757 5755 5752 5750 5749 5747 5745 5742 5741 5739 5737 5735 5733 5731 5730 5728 5726 5724 5722 5721 5719
5834 5831 5827 5822 5817 5813 5808 5803 5798 5794 5790 5785 5781 5777 5774 5771 5768 5766 5764 5761 5758 5755 5753 5750 5747 5745 5743 5741 5740 5738 5736 5735 5733 5731 5727 5725 5723 5720 5719 5718 5716 5715 5714
5823 5821 5817 5812 5809 5805 5800 5796 5792 5789 5784 5780 5775 5770 5768 5766 5763 5761 5758 5756 5754 5750 5747 5744 5742 5740 5738 5736 5734 5732 5730 5729 5728 5726 5723 5720 5718 5715 5714 5712 5710 5708 5706
5813 5810 5806 5802 5799 5796 5792 5789 5785 5782 5778 5773 5768 5765 5763 5760 5757 5754 5751 5749 5747 5746 5743 5739 5736 5734 5733 5731 5728 5726 5725 5723 5721 5719 5718 5716 5714 5712 5709 5707 5704 5701 5698
5805 5802 5798 5794 5791 5788 5784 5781 5778 5776 5772 5767 5763 5759 5756 5753 5750 5747 5745 5742 5740 5739 5736 5733 5731 5729 5727 5724 5722 5720 5718 5716 5714 5711 5710 5710 5708 5706 5702 5700 5697 5694 5691
5798 5795 5791 5788 5784 5783 5779 5774 5772 5769 5765 5760 5756 5753 5749 5745 5743 5741 5738 5735 5733 5732 5728 5726 5724 5722 5720 5718 5715 5713 5712 5710 5709 5707 5705 5704 5703 5699 5695 5693 5691 5688 5686
5790 5788 5786 5781 5780 5778 5775 5770 5765 5761 5757 5752 5749 5746 5743 5739 5736 5733 5730 5728 5726 5724 5721 5720 5718 5716 5714 5711 5708 5706 5706 5705 5704 5701 5699 5696 5694 5691 5688 5686 5684 5681 5679
5785 5782 5781 5779 5775 5770 5766 5762 5756 5752 5747 5744 5741 5739 5735 5731 5728 5725 5723 5721 5719 5717 5715 5714 5712 5710 5707 5704 5702 5699 5700 5698 5697 5695 5692 5689 5686 5683 5680 5678 5675 5673 5672
5776 5773 5772 5770 5764 5761 5757 5751 5747 5743 5738 5735 5733 5731 5728 5724 5721 5718 5716 5715 5712 5710 5709 5707 5706 5704 5701 5697 5695 5692 5693 5691 5689 5688 5686 5682 5679 5676 5672 5670 5667 5665 5665
5765 5764 5761 5756 5753 5750 5746 5739 5736 5733 5732 5729 5726 5723 5720 5717 5715 5712 5709 5707 5704 5702 5700 5699 5699 5697 5695 5691 5688 5685 5684 5683 5681 5679 5678 5676 5673 5669 5666 5662 5660 5659 5657
5753 5751 5747 5743 5742 5740 5735 5729 5726 5726 5724 5720 5717 5713 5711 5710 5708 5704 5701 5700 5696 5693 5692 5690 5690 5689 5687 5685 5681 5678 5675 5674 5673 5671 5670 5668 5665 5662 5659 5656 5655 5653 5651
5741 5740 5736 5732 5730 5728 5725 5718 5717 5717 5714 5710 5706 5704 5702 5700 5698 5695 5693 5691 5688 5685 5683 5681 5680 5680 5679 5676 5673 5669 5667 5666 5664 5663 5661 5659 5657 5654 5652 5651 5649 5646 5645
5729 5728 5724 5719 5715 5715 5715 5711 5708 5706 5703 5699 5697 5695 5693 5691 5690 5687 5685 5682 5679 5676 5674 5672 5671 5671 5670 5667 5663 5660 5658 5656 5655 5653 5651 5650 5649 5647 5646 5645 5643 5641 5640
5717 5716 5712 5709 5706 5706 5704 5702 5700 5697 5693 5690 5689 5687 5685 5683 5680 5678 5675 5673 5670 5667 5664 5663 5662 5660 5658 5656 5653 5650 5649 5647 5645 5641 5641 5642 5642 5641 5640 5638 5637 5635 5633
5706 5704 5702 5699 5697 5696 5694 5692 5691 5688 5684 5681 5679 5678 5677 5674 5672 5668 5665 5663 5661 5658 5656 5654 5651 5651 5648 5647 5644 5642 5640 5638 5635 5632 5634 5634 5634 5633 5632 5631 5630 5629 5627